• In Hungary
  • List of Countries
  • For 7 days
  • Water Temperature
  • Satellite Maps
  • Weather Map
  • News
  • Weather Widgets
  • user-avatar
    Login

    Hourly Weather Zalesovo

    Today, 22 September, Saturday

    Time Temperature Precipitation Wind Pressure Humidity
    00:00 +16°C° 0 mm 2 mps 748 mmHg 82%
    01:00 +16°C° 0 mm 2 mps 748 mmHg 83%
    02:00 +16°C° 0 mm 2 mps 748 mmHg 84%
    03:00 +15°C° 0 mm 2 mps 748 mmHg 85%
    04:00 +15°C° 0 mm 2 mps 748 mmHg 85%
    05:00 +15°C° 0 mm 2 mps 748 mmHg 86%
    06:00 +15°C° 0 mm 2 mps 748 mmHg 86%
    07:00 +16°C° 0 mm 3 mps 747 mmHg 81%
    08:00 +18°C° 0 mm 3 mps 747 mmHg 75%
    09:00 +19°C° 0 mm 3 mps 747 mmHg 70%
    10:00 +21°C° 0 mm 4 mps 747 mmHg 65%
    11:00 +23°C° 0 mm 4 mps 747 mmHg 60%
    12:00 +25°C° 0 mm 5 mps 747 mmHg 56%
    13:00 +25°C° 0 mm 5 mps 746 mmHg 54%
    14:00 +26°C° 0 mm 5 mps 746 mmHg 52%
    15:00 +26°C° 0 mm 5 mps 745 mmHg 51%
    16:00 +25°C° 0 mm 5 mps 745 mmHg 56%
    17:00 +23°C° 0 mm 4 mps 745 mmHg 61%
    18:00 +21°C° 0 mm 4 mps 744 mmHg 66%
    19:00 +21°C° 0 mm 4 mps 744 mmHg 66%
    20:00 +20°C° 0 mm 5 mps 743 mmHg 66%
    21:00 +20°C° 0 mm 5 mps 743 mmHg 66%
    22:00 +20°C° 0 mm 5 mps 743 mmHg 64%
    23:00 +19°C° 0 mm 5 mps 742 mmHg 63%

    Tomorrow, 23 September, Sunday

    Time Temperature Precipitation Wind Pressure Humidity
    00:00 +19°C° 0 mm 5 mps 742 mmHg 62%
    01:00 +19°C° 0 mm 5 mps 742 mmHg 62%
    02:00 +17°C° 0 mm 5 mps 742 mmHg 62%
    03:00 +17°C° 0 mm 5 mps 741 mmHg 62%
    04:00 +16°C° 0.1 mm 5 mps 741 mmHg 65%
    05:00 +17°C° 0.1 mm 4 mps 741 mmHg 68%
    06:00 +15°C° 0.1 mm 4 mps 740 mmHg 71%
    07:00 +15°C° 0.4 mm 4 mps 740 mmHg 74%
    08:00 +15°C° 0.4 mm 4 mps 740 mmHg 76%
    09:00 +15°C° 0.4 mm 4 mps 740 mmHg 78%
    10:00 +14°C° 1 mm 5 mps 740 mmHg 80%
    11:00 +12°C° 1 mm 5 mps 740 mmHg 82%
    12:00 +10°C° 1 mm 6 mps 740 mmHg 84%
    13:00 +10°C° 1 mm 6 mps 740 mmHg 84%
    14:00 +10°C° 1 mm 5 mps 741 mmHg 84%
    15:00 +10°C° 1 mm 4 mps 741 mmHg 84%
    16:00 +10°C° 0.1 mm 4 mps 741 mmHg 84%
    17:00 +11°C° 0.1 mm 3 mps 741 mmHg 84%
    18:00 +11°C° 0.1 mm 3 mps 741 mmHg 85%
    19:00 +10°C° 0 mm 3 mps 741 mmHg 87%
    20:00 +10°C° 0 mm 3 mps 742 mmHg 88%
    21:00 +10°C° 0 mm 3 mps 742 mmHg 90%
    22:00 +9°C° 0 mm 3 mps 742 mmHg 91%
    23:00 +9°C° 0 mm 3 mps 742 mmHg 91%

    Day after tomorrow, 24 September, Monday

    Time Temperature Precipitation Wind Pressure Humidity
    00:00 +8°C° 0 mm 3 mps 742 mmHg 92%
    01:00 +8°C° 0 mm 3 mps 742 mmHg 92%
    02:00 +8°C° 0 mm 3 mps 742 mmHg 92%
    03:00 +7°C° 0 mm 3 mps 742 mmHg 93%
    04:00 +7°C° 0 mm 3 mps 742 mmHg 93%
    05:00 +7°C° 0 mm 3 mps 742 mmHg 93%
    06:00 +7°C° 0 mm 3 mps 742 mmHg 94%
    07:00 +8°C° 0 mm 3 mps 742 mmHg 89%
    08:00 +9°C° 0 mm 3 mps 742 mmHg 84%
    09:00 +10°C° 0 mm 3 mps 742 mmHg 79%
    10:00 +12°C° 0 mm 4 mps 742 mmHg 72%
    11:00 +13°C° 0 mm 4 mps 742 mmHg 65%
    12:00 +15°C° 0 mm 5 mps 742 mmHg 58%
    13:00 +14°C° 0.1 mm 5 mps 741 mmHg 61%
    14:00 +14°C° 0.1 mm 5 mps 740 mmHg 64%
    15:00 +13°C° 0.1 mm 5 mps 739 mmHg 67%
    16:00 +11°C° 1.8 mm 6 mps 738 mmHg 74%
    17:00 +10°C° 1.8 mm 6 mps 738 mmHg 80%
    18:00 +9°C° 1.8 mm 7 mps 737 mmHg 86%
    19:00 +9°C° 2.5 mm 8 mps 735 mmHg 87%
    20:00 +8°C° 2.5 mm 9 mps 734 mmHg 87%
    21:00 +8°C° 2.5 mm 10 mps 732 mmHg 88%
    22:00 +9°C° 1.4 mm 10 mps 731 mmHg 87%
    23:00 +9°C° 1.4 mm 10 mps 729 mmHg 87%

    25 September, Tuesday

    Time Temperature Precipitation Wind Pressure Humidity
    00:00 +11°C° 1.4 mm 10 mps 728 mmHg 86%
    01:00 +9°C° 0.1 mm 10 mps 727 mmHg 84%
    02:00 +8°C° 0.1 mm 10 mps 726 mmHg 83%
    03:00 +7°C° 0.1 mm 9 mps 726 mmHg 81%
    04:00 +7°C° 0.1 mm 9 mps 725 mmHg 81%
    05:00 +7°C° 0.1 mm 10 mps 725 mmHg 81%
    06:00 +7°C° 0.1 mm 10 mps 724 mmHg 81%
    07:00 +7°C° 0.3 mm 10 mps 725 mmHg 82%
    08:00 +7°C° 0.3 mm 9 mps 725 mmHg 84%
    09:00 +7°C° 0.3 mm 9 mps 725 mmHg 85%
    10:00 +6°C° 0.3 mm 9 mps 726 mmHg 84%
    11:00 +6°C° 0.3 mm 10 mps 726 mmHg 83%
    12:00 +6°C° 0.3 mm 10 mps 727 mmHg 82%
    13:00 +6°C° 0.3 mm 10 mps 728 mmHg 82%
    14:00 +6°C° 0.3 mm 10 mps 729 mmHg 81%
    15:00 +5°C° 0.3 mm 10 mps 730 mmHg 81%
    16:00 +5°C° 0.5 mm 10 mps 731 mmHg 81%
    17:00 +5°C° 0.5 mm 10 mps 732 mmHg 81%
    18:00 +3°C° 0.5 mm 10 mps 733 mmHg 82%
    19:00 +3°C° 0.3 mm 10 mps 733 mmHg 82%
    20:00 +3°C° 0.3 mm 9 mps 734 mmHg 81%
    21:00 +3°C° 0.3 mm 9 mps 735 mmHg 81%
    22:00 +3°C° 0.1 mm 9 mps 735 mmHg 80%
    23:00 +3°C° 0.1 mm 9 mps 736 mmHg 80%

    26 September, Wednesday

    Time Temperature Precipitation Wind Pressure Humidity
    00:00 +2°C° 0.1 mm 8 mps 737 mmHg 79%
    01:00 +2°C° 0 mm 8 mps 737 mmHg 79%
    02:00 +1°C° 0 mm 8 mps 738 mmHg 79%
    03:00 +2°C° 0 mm 7 mps 738 mmHg 79%
    04:00 0°C° 0 mm 7 mps 739 mmHg 80%
    05:00 0°C° 0 mm 7 mps 739 mmHg 81%
    06:00 0°C° 0 mm 7 mps 740 mmHg 82%
    07:00 +1°C° 0 mm 6 mps 740 mmHg 79%
    08:00 +2°C° 0 mm 6 mps 741 mmHg 77%
    09:00 +2°C° 0 mm 6 mps 742 mmHg 74%
    10:00 +4°C° 0 mm 6 mps 742 mmHg 69%
    11:00 +5°C° 0 mm 6 mps 743 mmHg 63%
    12:00 +7°C° 0 mm 5 mps 743 mmHg 58%
    13:00 +8°C° 0 mm 5 mps 744 mmHg 56%
    14:00 +8°C° 0 mm 5 mps 744 mmHg 53%
    15:00 +8°C° 0 mm 5 mps 745 mmHg 50%
    16:00 +7°C° 0 mm 4 mps 745 mmHg 55%
    17:00 +6°C° 0 mm 4 mps 746 mmHg 59%
    18:00 +5°C° 0 mm 3 mps 746 mmHg 64%
    19:00 +5°C° 0 mm 3 mps 747 mmHg 66%
    20:00 +5°C° 0 mm 2 mps 747 mmHg 68%
    21:00 +4°C° 0 mm 2 mps 748 mmHg 71%
    22:00 +3°C° 0 mm 2 mps 748 mmHg 72%
    23:00 +3°C° 0 mm 2 mps 749 mmHg 73%

    27 September, Thursday

    Time Temperature Precipitation Wind Pressure Humidity
    00:00 +3°C° 0 mm 2 mps 749 mmHg 75%
    01:00 +3°C° 0 mm 2 mps 749 mmHg 75%
    02:00 +2°C° 0 mm 2 mps 750 mmHg 76%
    03:00 +2°C° 0 mm 2 mps 750 mmHg 76%
    04:00 +2°C° 0 mm 2 mps 750 mmHg 76%
    05:00 +2°C° 0 mm 2 mps 750 mmHg 77%
    06:00 +2°C° 0 mm 2 mps 750 mmHg 77%
    07:00 +3°C° 0 mm 2 mps 750 mmHg 73%
    08:00 +4°C° 0 mm 3 mps 750 mmHg 68%
    09:00 +5°C° 0 mm 3 mps 750 mmHg 63%
    10:00 +6°C° 0 mm 4 mps 750 mmHg 61%
    11:00 +8°C° 0 mm 5 mps 749 mmHg 59%
    12:00 +9°C° 0 mm 6 mps 749 mmHg 57%
    13:00 +9°C° 0 mm 6 mps 748 mmHg 57%
    14:00 +10°C° 0 mm 6 mps 748 mmHg 57%
    15:00 +10°C° 0 mm 7 mps 747 mmHg 58%
    16:00 +10°C° 0 mm 7 mps 747 mmHg 61%
    17:00 +9°C° 0 mm 6 mps 746 mmHg 65%
    18:00 +9°C° 0 mm 6 mps 746 mmHg 68%
    19:00 +9°C° 0 mm 7 mps 745 mmHg 68%
    20:00 +8°C° 0 mm 7 mps 745 mmHg 68%
    21:00 +7°C° 0 mm 8 mps 745 mmHg 68%
    22:00 +7°C° 0.1 mm 8 mps 744 mmHg 69%
    23:00 +7°C° 0.1 mm 8 mps 744 mmHg 69%
    Show more